Zurück zum Katalog

STARLINK-11700

AktivKommunikationVLEO
NORAD 64068·PAYLOAD·🇺🇸 United States

Gestartet May 21, 2025 von Cape Canaveral Space Force Station

Loading…

Nächste Überflüge (nächste 24 Stunden)

TLE

AktuellSource: CelesTrak SupGP

Epoche: Sep 15, 2026, 03:51 UTC

1 64068C 25107E   26258.16090278 -.00129350  00000+0 -10047-2 0  2588
2 64068  43.0011  36.5604 0001344 274.1054  45.2124 15.70902799    12

Verfolge STARLINK-11700 in Echtzeit mit AllMySat

Download on the App Store